sat.trackr.live / text

‹ back to catalog

STARLINK-4279

NORAD 53018 · 2022-076AJ

PAYLOAD ACTIVE UNKNOWN

§ Identity

Operator
Country
US
Launch date
2022-07-07
Launch site
AFETR
Launch vehicle
Mass (kg)
RCS (m²)

Purposes: comms

External: N2YO · Heavens-Above · Gunter

§ Orbital elements

Epoch: 2026-05-25T02:45:16.719840Z

Period
93.59 min
Inclination
53.2167°
Eccentricity
0.0000859
Mean motion
15.38568001 rev/d
Perigee alt
449.8 km
Apogee alt
450.9 km
Semi-major
6,828.5 km
B*
4.4206e-3
RAAN
95.2238°
Arg perigee
109.1341°
Mean anomaly
250.9758°
Rev number
21,460

§ Raw data

STARLINK-42791 53018U 22076AJ  26145.11477685  .00174401  00000+0  44206-2 0  99952 53018  53.2167  95.2238 0000859 109.1341 250.9758 15.38568001214609

JSON: /api/v1/satellites/53018 · /tle

For live sub-satellite position, see the globe view (requires WebGL).

§ Visibility from observer

Set your observer location to see the next 7 days of passes ≥ 10°. The values pass through the URL so the page stays shareable.

No JS? Fill the form by hand. The geolocation button needs JavaScript.